GFSSE_925_rhum_159.txt.gz
RH
63 52 52 54 49 46 44 44 45 48 49 50 50 52 53 57 67 74 75 73 72 69 67 68 70 69 68 68 72 74 74 70 65 78 90 100 98 91 82 82 81 81 81
56 52 51 56 49 47 47 46 48 52 52 53 53 52 53 54 64 71 74 73 74 72 71 73 71 68 69 70 72 75 73 62 69 74 83 90 84 90 85 80 80 89 91
52 51 54 54 51 48 47 48 52 56 55 55 55 54 52 52 55 61 64 69 70 70 68 70 73 73 71 73 74 71 63 68 71 65 69 84 92 85 78 77 78 88 90
52 52 54 53 50 49 48 48 50 56 58 59 59 57 55 56 56 60 63 68 70 72 76 86 78 73 74 79 77 67 68 74 80 68 68 75 87 95 84 83 73 76 78
51 55 55 54 52 49 48 49 53 58 60 61 62 62 58 59 60 62 65 70 74 76 90 89 80 74 77 81 80 70 68 69 82 82 78 70 78 89 93 81 70 70 72
53 55 56 53 50 49 50 51 55 60 61 62 63 65 64 63 64 66 67 70 71 71 82 80 71 70 77 80 80 75 67 67 74 85 85 70 77 96 86 75 75 75 80
52 52 53 51 48 47 48 50 58 62 62 61 63 66 68 66 66 67 68 69 69 72 81 77 76 74 79 80 79 73 64 78 75 79 86 70 77 82 92 75 66 72 65
79 72 66 60 57 53 50 48 53 63 68 68 66 66 68 68 68 68 67 68 70 73 85 77 74 73 76 75 70 67 62 75 78 80 83 72 76 68 79 70 68 73 77
93 87 83 79 76 67 58 56 56 58 68 72 72 68 69 71 70 69 69 69 70 71 78 76 73 70 70 68 64 66 63 74 78 75 82 75 76 73 63 64 66 74 84
79 94 100 99 96 89 87 81 70 64 63 68 79 79 74 72 72 72 71 70 71 72 74 74 72 70 68 68 67 67 66 67 75 78 81 79 71 74 64 76 80 79 86
46 55 73 93 98 99 96 94 90 86 72 67 72 86 94 84 74 72 72 71 71 73 74 73 72 69 68 68 69 69 68 64 70 73 75 76 73 75 83 99 94 86 82
54 44 36 42 61 83 97 98 99 96 93 87 71 70 82 92 90 79 74 76 76 75 75 74 74 69 68 67 69 72 66 66 69 68 69 71 73 87 96 98 92 84 78
57 41 32 28 32 43 64 80 84 97 99 95 92 87 73 75 85 94 89 82 82 83 84 83 82 76 69 66 67 72 65 65 70 66 66 66 71 79 96 98 90 85 76
52 41 33 27 25 28 32 40 60 74 82 97 100 95 92 79 81 83 92 92 86 81 83 82 81 77 70 68 65 67 66 62 68 66 68 65 65 70 95 91 100 99 82
48 49 38 29 24 25 24 26 31 44 61 78 93 100 100 95 79 77 83 86 92 89 85 83 82 79 73 69 67 66 66 62 64 69 70 71 67 68 90 90 95 100 98
56 49 41 34 34 31 28 28 26 27 33 44 56 76 97 100 100 92 76 80 85 91 90 83 81 80 76 68 65 64 67 63 61 71 71 73 70 66 80 92 90 97 99
65 57 53 41 33 31 34 33 32 32 31 32 42 47 79 94 99 100 98 90 78 80 86 90 90 87 83 76 69 62 66 74 75 62 67 71 69 66 75 81 94 96 93
72 71 61 47 41 37 34 35 37 35 33 34 39 40 59 49 64 82 95 100 95 88 80 82 93 95 92 87 78 68 62 68 74 76 67 72 70 67 72 85 84 89 91
60 54 46 37 38 40 40 37 36 38 35 37 41 51 51 50 55 68 70 70 84 100 100 96 98 100 99 99 92 83 69 65 73 74 74 72 71 69 63 70 78 80 87
50 45 40 38 38 36 35 35 38 37 36 41 41 52 56 62 67 66 65 75 71 81 92 100 100 100 100 99 98 92 81 68 72 79 78 74 72 70 66 64 71 79 81
51 48 47 50 61 62 67 77 68 57 47 44 49 51 59 71 67 86 96 82 94 100 98 88 100 100 100 100 100 99 97 88 78 80 87 81 76 71 66 66 66 70 77
61 54 50 48 52 66 72 89 89 80 71 66 61 64 72 75 78 96 94 99 100 100 100 99 95 99 100 100 92 89 93 93 100 93 88 91 84 84 75 68 70 70 66
59 56 55 55 53 57 64 71 80 85 89 87 80 74 73 83 89 88 97 98 99 100 100 100 99 97 98 98 100 79 98 84 93 99 100 98 98 93 90 93 76 74 69
61 56 55 54 54 56 60 72 87 92 90 93 93 96 97 95 96 96 99 98 97 99 100 100 99 100 99 96 98 100 82 73 96 100 100 100 100 99 92 93 95 84 80
56 52 50 51 53 58 62 70 86 91 91 90 91 95 94 97 100 100 99 99 100 97 97 99 100 99 100 99 97 98 100 98 91 95 98 97 91 98 100 96 92 91 86
52 51 52 53 55 61 70 73 82 93 99 91 87 88 93 96 97 98 99 100 100 100 100 99 99 100 100 99 99 95 96 97 96 96 92 90 86 80 95 99 100 100 99

GFSSE_925_rhum_162.txt.gz
RH
58 56 50 52 55 56 53 52 52 52 52 51 49 49 50 55 61 67 74 78 78 74 70 67 68 71 71 74 74 74 74 66 65 75 99 98 98 94 82 80 82 82 85
69 64 51 51 56 57 54 54 54 55 56 55 54 52 51 53 58 62 64 66 70 76 76 75 73 73 72 76 77 77 69 62 67 74 84 90 90 96 84 85 87 93 88
69 58 53 52 54 55 55 56 58 57 58 57 56 57 56 56 58 62 66 68 71 76 72 69 70 73 72 76 76 72 62 68 68 68 72 82 90 95 84 90 100 100 99
58 57 54 54 56 56 55 58 60 60 60 60 59 58 59 58 60 62 68 70 69 68 69 68 71 70 69 75 73 64 66 73 70 69 72 80 89 91 97 99 98 94 91
56 57 55 55 54 53 54 58 62 65 65 64 62 60 59 58 59 61 65 67 67 69 73 73 72 72 73 79 72 67 65 70 79 79 77 77 88 94 97 81 96 78 75
78 74 67 64 60 56 55 56 61 68 71 71 68 65 62 61 60 60 61 64 68 74 86 73 69 70 74 78 76 71 67 63 76 83 82 75 84 94 95 73 73 73 77
92 90 84 77 77 81 80 72 69 67 72 76 77 74 68 64 62 60 60 64 68 74 86 78 70 70 74 76 74 72 66 66 76 77 83 71 82 94 89 77 81 86 77
94 92 86 85 84 84 90 99 99 90 84 82 84 84 79 72 67 63 62 63 67 73 82 78 72 72 73 75 72 65 63 71 76 76 81 72 78 85 94 68 73 64 59
92 95 96 88 81 80 84 86 90 98 96 90 87 86 90 88 78 69 65 66 68 72 78 80 72 69 72 74 70 62 62 71 77 78 79 78 74 70 79 66 67 68 72
54 73 82 94 93 89 90 86 84 89 95 100 98 94 89 90 91 86 79 71 70 73 77 81 76 70 70 71 68 64 64 71 80 81 76 81 73 73 78 61 66 74 81
34 38 48 59 78 91 90 91 86 84 83 87 93 99 98 94 90 84 85 87 81 76 79 82 77 70 69 69 69 67 67 68 73 76 76 77 76 75 77 74 77 82 86
42 35 34 34 40 50 62 76 82 90 90 89 88 92 97 94 92 90 88 84 90 90 85 84 83 76 72 71 70 70 71 69 69 72 72 73 76 77 90 88 89 89 83
55 39 33 29 28 27 31 38 53 69 76 86 94 100 100 97 94 95 84 82 83 86 92 93 88 85 77 71 70 71 69 69 69 72 70 70 73 78 93 91 92 89 81
55 47 39 32 26 23 23 24 29 34 47 65 70 95 98 99 100 98 97 84 78 78 86 94 96 87 80 75 70 72 69 67 67 71 70 70 70 73 93 86 90 92 93
58 54 47 37 31 28 24 24 26 27 29 37 47 58 91 95 98 100 100 100 93 83 82 95 99 96 86 77 72 73 70 67 64 65 70 70 70 71 76 85 89 90 100
53 47 44 39 35 31 27 26 28 29 33 33 32 45 50 47 59 74 93 98 100 99 95 92 91 80 78 83 79 72 70 71 62 61 67 70 74 72 71 86 90 86 92
56 50 46 39 32 29 28 28 27 30 30 33 42 44 40 39 44 48 55 74 92 97 100 100 100 100 93 86 85 76 73 70 71 62 62 70 75 78 72 75 85 88 86
54 50 44 38 30 27 26 30 33 31 30 35 41 43 41 45 48 45 47 57 73 79 82 99 100 100 100 100 93 84 78 71 67 69 64 63 66 75 77 72 79 86 87
53 48 42 37 32 28 24 23 26 32 35 39 45 52 50 50 50 51 61 57 59 92 90 84 94 100 99 100 100 98 89 83 68 66 71 74 71 69 75 70 75 84 88
53 48 45 43 40 35 30 26 25 25 28 37 52 57 59 63 60 63 75 67 74 98 97 96 92 86 99 100 100 100 100 91 89 76 73 69 73 72 73 73 70 87 91
50 47 45 42 44 43 44 49 47 50 48 48 53 60 70 68 73 80 78 97 100 100 99 99 99 100 98 97 100 100 100 100 100 89 81 78 73 73 73 76 76 74 90
52 49 48 49 51 56 63 76 80 76 78 80 81 81 83 82 86 96 99 99 98 97 97 99 99 99 100 100 98 95 92 96 100 100 93 89 79 77 77 74 80 80 83
55 56 54 53 54 59 59 63 70 72 75 76 76 84 90 91 92 99 100 98 97 98 98 97 98 99 98 96 100 98 98 96 97 100 100 99 95 93 84 81 84 94 92
56 54 51 52 54 58 59 61 68 84 94 90 90 89 89 93 93 97 98 99 99 100 99 98 93 93 100 97 97 92 97 96 96 93 100 100 100 100 98 97 96 93 95
53 53 52 52 54 58 58 62 68 74 88 95 97 96 90 94 92 95 98 99 100 100 100 100 97 96 98 99 97 97 93 91 92 95 88 96 100 100 100 100 100 92 100
56 55 54 50 53 59 61 59 66 80 91 96 95 100 92 92 92 97 98 100 100 100 100 100 100 99 96 97 97 96 96 92 86 86 91 91 92 100 99 100 100 98 85

GFSSE_925_rhum_165.txt.gz
RH
67 58 59 55 59 58 59 58 56 53 52 49 45 45 47 50 57 72 80 80 74 70 70 67 68 70 73 69 71 70 70 63 67 73 98 95 92 94 81 79 80 88 81
82 69 61 57 60 58 62 59 59 58 56 55 52 49 51 54 60 67 70 71 72 72 72 71 69 69 69 69 72 71 65 64 65 71 83 84 86 98 93 86 85 94 88
95 70 62 59 60 60 63 63 63 63 62 60 58 56 56 58 61 64 68 72 75 73 69 65 69 71 73 73 73 68 62 67 65 68 72 82 85 93 94 90 94 98 96
86 74 68 65 62 60 62 65 65 66 68 68 66 63 61 61 61 63 67 69 70 69 67 66 68 70 70 73 73 62 65 72 66 71 85 86 86 92 99 98 100 99 99
92 93 88 84 82 80 82 79 76 72 72 72 72 71 68 64 63 63 65 67 68 70 72 69 68 69 71 76 70 64 65 70 75 83 92 89 84 94 99 88 96 84 90
96 93 86 85 94 99 94 94 96 89 82 80 78 78 78 73 68 66 67 69 70 71 74 68 68 68 71 76 73 67 67 65 78 92 91 89 90 93 98 85 81 77 76
95 93 88 85 80 76 84 94 94 96 96 92 88 84 80 79 78 74 73 74 75 75 88 76 68 68 70 74 74 74 70 64 89 89 93 90 92 90 94 80 81 83 83
92 91 86 85 84 80 78 79 90 96 99 99 96 94 90 86 82 80 81 81 81 80 77 77 72 69 70 72 70 73 68 62 83 84 91 87 86 90 92 81 86 86 64
84 89 94 95 94 92 86 84 88 84 84 93 98 96 97 93 90 86 82 82 87 89 85 82 76 71 71 72 67 68 65 63 86 88 90 86 77 78 88 67 75 66 58
51 57 67 85 92 90 92 91 86 85 89 88 86 99 91 93 93 87 86 86 85 86 88 85 84 77 73 74 69 65 65 67 85 89 88 86 73 72 74 64 61 66 73
35 33 37 43 55 69 77 83 86 89 88 91 92 91 97 95 95 95 90 83 83 85 83 83 86 84 79 77 74 68 69 80 86 87 88 78 78 75 90 76 60 64 74
54 39 30 27 28 32 37 48 63 74 84 94 100 100 100 100 99 97 91 92 90 80 78 82 81 84 88 90 87 75 83 83 87 84 84 73 78 77 95 86 78 73 84
59 54 35 31 29 25 24 24 29 35 48 60 70 85 98 100 98 99 99 98 94 95 90 81 82 87 95 95 90 90 85 88 81 82 79 71 75 79 95 87 83 84 85
59 61 45 31 29 28 26 24 24 25 26 30 48 51 55 65 86 94 97 98 99 98 98 98 99 80 87 98 96 95 90 83 79 80 80 71 74 77 92 88 82 87 86
57 58 41 30 26 27 26 26 24 25 26 30 31 32 34 40 42 45 63 80 95 99 99 100 98 100 97 97 96 97 92 87 86 82 78 68 74 75 80 93 85 88 93
56 59 47 33 28 27 28 28 27 27 28 30 34 34 33 45 48 43 38 44 64 80 93 98 99 97 100 100 96 96 92 86 82 84 78 76 68 74 75 76 90 96 87
56 60 59 54 36 33 30 29 32 33 36 41 48 42 46 48 48 52 79 81 72 46 63 76 88 99 100 99 100 93 93 93 86 82 80 77 73 71 75 74 75 89 86
60 60 60 59 40 34 33 33 34 33 39 47 57 59 55 56 62 89 92 84 84 90 91 97 98 96 96 100 99 100 93 90 92 86 80 78 76 77 75 76 74 83 85
60 57 50 41 34 32 29 29 32 38 50 63 71 79 82 89 89 94 93 90 95 98 98 99 95 99 99 96 99 99 99 98 91 91 84 82 80 76 78 82 77 74 82
61 57 54 53 44 35 36 39 44 48 49 62 75 79 82 82 95 97 93 96 96 99 99 94 92 90 94 99 100 99 97 100 99 92 92 85 79 84 81 79 78 77 75
62 58 53 46 44 42 48 52 57 59 64 67 73 77 83 89 94 92 99 99 97 90 94 96 98 99 95 91 96 90 88 90 99 98 95 90 82 81 83 88 83 84 80
60 63 61 62 68 68 67 71 75 73 70 76 77 82 87 90 93 90 100 99 99 97 95 98 98 97 95 93 96 91 86 74 95 99 99 95 92 89 86 87 89 87 83
61 65 62 63 67 70 72 67 66 65 64 65 76 79 84 89 92 95 95 99 100 100 100 99 99 98 93 91 92 94 92 89 92 88 98 100 98 99 95 91 89 89 90
62 64 61 63 65 68 74 70 73 70 70 76 80 82 84 84 88 90 98 98 99 99 100 99 98 98 99 92 88 88 90 95 95 90 96 98 100 100 99 100 94 95 92
61 60 57 58 61 66 71 71 68 71 75 77 76 84 90 91 87 90 96 98 98 99 99 100 100 100 100 98 97 91 89 90 89 89 92 88 92 89 92 100 98 99 100
60 60 62 59 62 69 72 71 70 73 78 78 76 75 80 82 84 87 90 96 98 100 100 100 100 99 100 100 95 94 92 90 83 86 84 82 84 89 98 100 96 90 99

GFSSE_925_rhum_171.txt.gz
RH
58 80 71 68 63 60 58 56 60 64 67 70 69 68 69 71 74 76 75 75 74 77 76 72 70 74 76 72 70 69 64 60 58 59 65 75 78 84 77 74 79 92 78
74 82 78 73 69 67 66 65 63 62 65 65 65 66 69 75 79 78 77 73 71 72 73 74 72 71 70 68 69 68 62 58 58 58 65 86 80 72 78 77 79 89 85
87 84 88 75 72 69 68 69 69 68 69 69 71 74 77 79 81 80 74 72 72 73 73 72 74 73 69 69 71 69 62 61 59 61 65 79 76 73 79 85 85 92 89
82 89 99 98 83 77 76 75 74 72 69 69 69 72 77 79 80 80 81 83 82 78 76 76 77 74 71 72 74 67 63 62 62 60 69 66 64 75 81 88 86 91 90
86 90 99 100 95 92 91 88 81 79 78 76 74 73 73 74 76 80 83 84 83 82 85 89 88 77 72 72 74 66 66 62 58 58 59 62 66 82 79 85 87 88 94
79 95 96 93 95 95 96 93 89 87 86 86 85 83 82 82 79 76 79 78 82 82 84 87 85 79 75 75 77 70 69 67 55 66 54 61 68 82 76 93 81 79 73
79 90 98 88 89 90 96 98 99 97 94 92 90 89 88 87 86 82 78 76 76 78 81 86 90 81 77 76 79 78 72 70 66 64 49 57 70 78 77 78 77 76 66
80 87 90 91 94 90 87 90 93 94 93 95 99 93 91 88 87 86 85 82 77 74 76 77 78 81 78 78 79 80 78 76 72 56 50 53 66 70 75 74 77 84 85
79 81 83 86 87 92 93 97 98 98 95 94 99 91 79 86 85 86 87 87 89 84 80 78 76 78 82 77 76 78 79 75 76 58 50 52 64 66 69 90 79 81 82
64 71 73 75 73 72 81 81 92 98 98 98 99 99 98 95 91 95 89 97 93 91 87 85 85 80 78 80 78 72 76 78 75 63 50 52 61 67 65 92 83 79 78
48 56 65 69 66 55 52 59 64 71 77 80 79 81 90 97 97 96 99 91 88 89 86 82 82 82 86 85 76 71 66 76 61 50 46 52 61 65 65 87 80 72 70
40 41 51 63 66 47 43 48 45 49 58 61 62 65 67 71 74 75 80 83 88 91 88 84 87 83 85 82 62 62 78 70 58 48 43 49 56 62 66 80 78 67 66
38 40 42 54 60 52 46 43 40 44 48 49 56 64 56 50 52 47 47 52 59 71 84 91 95 99 97 88 73 68 66 54 49 44 42 46 52 56 66 76 83 79 70
34 37 40 48 54 56 43 43 40 40 45 47 52 67 57 47 53 49 45 43 40 42 47 53 72 88 91 98 93 80 74 62 54 47 43 44 51 55 60 79 88 84 82
33 36 40 46 51 52 51 50 48 44 46 50 52 64 66 56 61 52 49 44 41 42 41 47 46 53 67 82 94 99 92 80 68 59 52 51 52 55 57 68 94 93 91
33 36 39 45 50 51 48 50 45 49 43 46 50 66 72 66 67 57 49 48 43 50 51 50 50 48 47 53 75 89 94 96 87 71 57 51 53 55 57 59 76 89 92
31 37 36 37 49 51 50 48 44 48 45 46 48 55 71 72 70 66 52 50 52 56 54 51 50 45 43 41 40 43 73 83 91 93 81 64 53 57 59 58 60 78 90
34 37 41 44 50 50 53 49 47 51 45 47 50 53 69 70 72 65 54 55 65 55 50 52 50 51 49 47 41 38 37 43 66 75 89 89 77 66 59 60 58 63 84
36 39 43 47 49 49 49 48 47 49 46 45 49 53 66 65 72 69 56 60 67 55 53 56 59 59 56 51 46 43 42 38 35 46 63 72 87 82 74 62 60 58 62
40 41 43 44 46 43 42 38 38 37 41 44 47 55 62 64 70 70 59 64 64 60 60 67 70 67 64 57 54 55 50 45 43 40 43 70 74 84 85 74 72 63 61
38 37 40 44 44 36 34 35 37 37 38 40 44 53 58 64 68 68 65 65 66 65 69 70 70 67 66 62 60 58 55 52 45 41 42 46 54 70 76 86 76 73 72
38 38 37 39 44 40 34 37 42 41 39 41 42 47 52 61 66 65 70 68 71 70 70 74 75 73 72 71 68 73 53 49 34 58 54 50 56 70 76 93 89 82 71
38 37 35 38 42 46 44 37 38 35 34 36 40 42 52 56 60 66 68 70 70 71 73 84 82 87 87 85 77 82 82 64 76 64 60 57 59 62 64 65 77 94 85
39 40 38 39 40 44 50 42 44 39 38 42 41 44 50 52 55 59 64 67 68 70 80 88 89 90 90 89 90 84 88 93 94 89 64 63 62 58 59 62 80 77 97
39 40 40 40 42 47 50 50 45 46 43 42 44 49 48 50 53 56 63 67 68 70 79 86 88 88 98 93 87 85 80 81 75 78 84 64 65 62 58 60 61 65 70
44 45 42 37 41 48 50 51 52 52 50 48 47 48 47 51 54 59 64 66 71 74 85 88 87 95 92 87 82 82 82 85 85 86 84 78 74 72 67 64 64 63 64